Location: Churchill Northern Studies Centre
(58.7378°N, 93.8201°W)
Time: 00:23:39
(UTC-06:00)

N. Korean satellite - Pass Details

Date: 08 October 2017
Orbit: 461 x 513 km, 97.2° (Epoch: 13 December)

Event Time Altitude Azimuth Distance (km) Brightness Sun altitude
Rises 19:16:10 0° 175° (S) 2,563 10.2 -7.1°
Reaches altitude 10° 19:18:17 10° 179° (S) 1,676 9.3 -7.4°
Maximum altitude 19:21:50 55° 259° (W) 586 7.4 -7.8°
Drops below altitude 10° 19:25:20 10° 338° (NNW) 1,661 9.6 -8.3°
Sets 19:27:25 0° 343° (NNW) 2,536 10.5 -8.6°
